EW2349 Weather Reports


time (UTC)temp
C
wind
direction
speed
KPH
gust
KPH
rain 1hr
cm
rain 24hr
cm
rain mn
cm
humidity
%
barometer
mb
20210723153107 18 329 8.0 16.1 0.00 0.36 0.00 64 1010.0
20210723151626 18 335 11.3 16.1 0.00 0.36 0.00 64 1009.9
20210723150024 17 336 11.3 19.3 0.00 0.36 0.00 66 1009.9
20210723144525 16 321 12.9 19.3 0.00 0.36 0.00 68 1009.7
20210723143108 16 325 9.7 16.1 0.00 0.36 0.00 71 1010.0
20210723141547 15 323 6.4 12.9 0.00 0.36 0.00 78 1010.1
20210723140017 15 333 4.8 8.0 0.00 0.36 0.00 79 1010.3
20210723134516 15 331 4.8 8.0 0.00 0.36 0.00 77 1010.4
20210723133021 15 355 6.4 8.0 0.00 0.36 0.00 75 1010.2
20210723131539 15 256 3.2 9.7 0.00 0.36 0.00 73 1010.6
20210723130005 15 259 4.8 8.0 0.00 0.36 0.00 74 1010.5
20210723124503 15 237 3.2 8.0 0.00 0.36 0.00 77 1010.3
20210723123221 15 306 1.6 8.0 0.00 0.36 0.00 78 1009.7
20210723121640 14 306 3.2 6.4 0.00 0.36 0.00 79 1008.9
20210723120115 13 289 4.8 9.7 0.00 0.36 0.00 80 1008.6
20210723114749 14 301 6.4 14.5 0.00 0.41 0.00 79 1008.6
20210723113126 14 286 3.2 4.8 0.00 0.41 0.00 78 1008.1
20210723111625 15 294 3.2 9.7 0.00 0.41 0.00 76 1008.2
20210723110118 15 315 4.8 9.7 0.00 0.41 0.00 75 1007.7
20210723104548 15 330 6.4 12.9 0.00 0.48 0.00 77 1007.5
20210723103116 16 348 4.8 9.7 0.00 0.48 0.00 80 1007.3
20210723101604 16 309 4.8 11.3 0.00 0.48 0.00 82 1007.2
20210723100119 16 284 4.8 12.9 0.00 0.48 0.00 87 1007.2
20210723094530 16 292 6.4 9.7 0.00 0.64 0.00 88 1007.2
20210723093036 16 282 4.8 11.3 0.00 0.64 0.00 88 1007.2
20210723091631 15 303 3.2 6.4 0.00 0.64 0.00 88 1007.1
20210723090021 15 290 4.8 6.4 0.00 0.64 0.00 86 1007.1
20210723084529 16 313 3.2 6.4 0.00 0.71 0.00 86 1007.0
20210723083029 16 258 1.6 3.2 0.00 0.71 0.00 84 1006.6
20210723081524 17 257 0.0 0.0 0.00 0.71 0.00 82 1006.7
20210723080037 17 259 0.0 8.0 0.00 0.71 0.00 82 1006.7
20210723074614 17 304 0.0 3.2 0.00 0.71 0.00 81 1006.8
20210723073007 17 316 0.0 0.0 0.00 0.71 0.00 81 1006.6
20210723071511 17 316 1.6 8.0 0.00 0.71 0.00 81 1006.4
20210723070151 18 246 0.0 1.6 0.00 0.71 0.00 79 1006.4
20210723064711 18 246 0.0 1.6 0.00 0.71 0.00 77 1006.4
20210723063116 18 273 0.0 4.8 0.00 0.71 0.00 76 1006.1
20210723061715 18 324 3.2 8.0 0.00 0.71 0.00 80 1006.0
20210723060103 18 213 4.8 9.7 0.00 0.71 0.00 79 1005.8
20210723054630 18 196 3.2 9.7 0.00 0.71 0.71 80 1005.8
20210723053157 18 195 6.4 11.3 0.00 0.71 0.71 79 1005.6
20210723051619 18 207 6.4 12.9 0.00 0.71 0.71 79 1005.4
20210723050113 18 211 0.0 9.7 0.00 0.71 0.71 80 1005.5
20210723044615 18 181 0.0 3.2 0.00 0.71 0.71 78 1005.6
20210723043146 19 151 4.8 11.3 0.00 0.71 0.71 77 1005.7
20210723041704 19 151 1.6 8.0 0.03 0.71 0.71 80 1005.9
20210723040122 19 134 6.4 12.9 0.05 0.71 0.71 79 1005.4
20210723034552 19 164 9.7 24.1 0.18 0.71 0.71 80 1004.9
20210723033046 19 163 17.7 37.0 0.23 0.71 0.71 79 1005.8
20210723031625 20 138 24.1 38.6 0.23 0.69 0.69 76 1006.2
20210723030047 19 155 14.5 27.4 0.30 0.66 0.66 81 1008.3
20210723023208 20 209 22.5 45.1 0.13 0.48 0.48 72 1008.2
20210723021558 21 214 37.0 56.3 0.10 0.46 0.46 61 1006.5
20210723020101 25 277 33.8 56.3 0.00 0.36 0.36 46 1005.2
20210723014640 30 228 6.4 11.3 0.00 0.36 0.36 44 1003.5
20210723013059 31 209 4.8 8.0 0.00 0.36 0.36 41 1003.0
20210723011533 32 206 1.6 8.0 0.00 0.36 0.36 38 1002.9
20210723010052 33 207 4.8 12.9 0.00 0.36 0.36 34 1002.6
20210723004532 35 198 3.2 11.3 0.00 0.36 0.36 32 1002.5
20210723003022 35 221 4.8 9.7 0.00 0.36 0.36 30 1002.9
20210723001548 35 209 4.8 9.7 0.00 0.36 0.36 30 1003.0
20210723000215 36 200 1.6 12.9 0.00 0.36 0.36 33 1003.0
20210722234538 36 216 4.8 14.5 0.00 0.36 0.36 28 1003.0
20210722233044 36 208 8.0 12.9 0.00 0.36 0.36 31 1003.3
20210722231521 36 217 4.8 12.9 0.00 0.36 0.36 33 1003.2
20210722230015 36 225 3.2 12.9 0.00 0.36 0.36 32 1003.5
20210722224517 36 219 8.0 17.7 0.00 0.36 0.36 32 1003.5
20210722223015 36 263 8.0 14.5 0.00 0.36 0.36 31 1003.3
20210722221542 36 211 6.4 14.5 0.00 0.36 0.36 31 1003.4
20210722220011 36 213 8.0 12.9 0.00 0.36 0.36 32 1003.5
20210722214509 35 215 6.4 14.5 0.00 0.36 0.36 32 1003.7
20210722213149 35 221 3.2 17.7 0.00 0.36 0.36 36 1003.9
20210722211648 34 214 8.0 19.3 0.00 0.36 0.36 38 1003.7
20210722210118 33 139 11.3 20.9 0.00 0.36 0.36 39 1004.1
20210722204658 34 165 4.8 27.4 0.00 0.36 0.36 39 1004.2
20210722203138 34 159 12.9 19.3 0.00 0.36 0.36 39 1004.3
20210722201602 33 140 6.4 22.5 0.00 0.36 0.36 40 1004.7
20210722200101 33 122 11.3 19.3 0.00 0.36 0.36 41 1004.7
20210722194644 32 96 3.2 12.9 0.00 0.36 0.36 42 1005.0
20210722191548 32 327 4.8 12.9 0.00 0.36 0.36 44 1005.2
20210722190128 32 329 8.0 12.9 0.00 0.36 0.36 44 1005.2
20210722184607 32 304 3.2 11.3 0.00 0.36 0.36 44 1005.5
20210722183046 32 302 0.0 9.7 0.00 0.36 0.36 45 1005.8
20210722181536 31 277 3.2 12.9 0.00 0.36 0.36 46 1005.9
20210722180022 31 268 6.4 16.1 0.00 0.36 0.36 47 1006.4
20210722174618 31 253 4.8 11.3 0.00 0.36 0.36 51 1006.2
20210722173052 30 292 3.2 6.4 0.00 0.36 0.36 53 1006.2
20210722171522 30 242 4.8 9.7 0.00 0.36 0.36 55 1006.4
20210722170009 29 310 4.8 8.0 0.00 0.36 0.36 54 1006.4
20210722164505 29 281 1.6 9.7 0.00 0.36 0.36 56 1006.6
20210722163023 28 219 4.8 8.0 0.00 0.36 0.36 58 1006.8
20210722161506 28 213 1.6 9.7 0.00 0.36 0.36 59 1006.7
20210722160241 28 224 3.2 11.3 0.00 0.36 0.36 59 1006.7
20210722154636 28 211 4.8 16.1 0.00 0.36 0.36 60 1006.6